Simultaneous Nadir Overpasses (SNOs) Predictions

Prediction of SNOs between METOP-B and NOAA-19 Satellite Orbit:

Table of predicted SNOs for the next 14.0 days since TLE Epoch: 2/28/2020
Index Date (METOP-B) Time (METOP-B) Lat,Lon (METOP-B) SZA (METOP-B ) Date (NOAA-19) Time (NOAA-19) Lat,Lon (NOAA-19) SZA (NOAA-19 ) Distance(km) Time Diff (sec)
1 03/03/2020 10:04:48 79.83, 49.58 86.83 03/03/2020 10:03:33 79.83, 49.65 86.81 1.52 75
2 03/03/2020 10:55:29 -79.85,-142.96 93.17 03/03/2020 10:54:38 -79.82,-143.04 93.21 3.47 51
3 03/03/2020 11:46:10 79.82, 24.13 86.78 03/03/2020 11:45:34 79.84, 24.05 86.78 2.25 36
4 03/03/2020 12:36:52 -79.80,-168.70 93.26 03/03/2020 12:36:39 -79.83,-168.64 93.24 2.87 13
5 03/03/2020 13:27:31 79.81, -1.32 86.74 03/03/2020 13:27:33 79.82, -1.25 86.75 1.81 2
6 03/03/2020 14:18:12 -79.82, 166.14 93.26 03/03/2020 14:18:38 -79.81, 166.06 93.27 2.05 26
7 03/03/2020 15:08:52 79.83, -26.49 86.74 03/03/2020 15:09:33 79.80, -26.55 86.72 3.14 41
8 03/03/2020 15:59:34 -79.81, 140.69 93.31 03/03/2020 16:00:38 -79.79, 140.76 93.30 2.34 64




NCC Satellite Simultaneous Nadir Overpasses (SNOs) Prediction Service
